Smyrna, TN

6:01 AM CDT on September 26, 2017 (GMT -0500)
Smyrna

Weather History for KMQY - February, 2013

Change the Weather History Date:

Friday, February 1, 2013

  Actual Average Record
Temperature  
Mean Temperature 24 °F -  
Max Temperature 32 °F 46 °F 66 °F (1997)
Min Temperature 16 °F 32 °F 16 °F (2013)
Degree Days  
Heating Degree Days 41    
Moisture  
Dew Point 15 °F    
Average Humidity 69    
Maximum Humidity 87    
Minimum Humidity 47    
Precipitation  
Precipitation 0.00 in - - ()
Sea Level Pressure  
Sea Level Pressure 30.45 in    
Wind  
Wind Speed 12 mph (NNW)    
Max Wind Speed 22 mph    
Max Gust Speed 29 mph    
Visibility 10 miles    
Events      
Averages and records for this station are not official NWS values.
T = Trace of Precipitation, MM = Missing Value Source: NWS Daily Summary

Daily Weather History Graph

Daily Weather History Graph

Search for Another Location

Airport or City:

Trip Planner

Search our weather history database for the weather conditions in past years. The results will help you decide how hot, cold, wet, or windy it might be!

Date:

Astronomy

Feb. 01, 2013 Rise Set
Actual Time 6:46 AM CST 5:13 PM CST
Civil Twilight 6:19 AM CST 5:40 PM CST
Nautical Twilight 5:48 AM CST 6:10 PM CST
Astronomical Twilight 5:18 AM CST 6:41 PM CST
Moon 11:06 PM CST (2/1) 9:32 AM CST (2/1)
Length of Visible Light 11h 20m
Length of Day
10h 26m
Waning Gibbous, 70% of the Moon is Illuminated
Feb 1
Waning Gibbous
Feb 3
Last Quarter
Feb 10
New
Feb 17
First Quarter
Feb 25
Full

Hourly Weather History & Observations

Time (CST) Temp. Windchill Dew Point Humidity Pressure Visibility Wind Dir Wind Speed Gust Speed Precip Events Conditions
12:18 AM 32.0 °F 19.5 °F 28.4 °F 87% 30.24 in 10.0 mi NNW 21.9 mph 28.8 mph 0.00 in   Overcast
12:56 AM 29.1 °F 16.0 °F 25.2 °F 85% 30.31 in 10.0 mi NNW 20.7 mph 25.3 mph 0.00 in   Scattered Clouds
1:56 AM 25.2 °F 11.6 °F 20.1 °F 81% 30.34 in 10.0 mi North 18.4 mph 25.3 mph N/A   Clear
2:37 AM 24.8 °F 12.4 °F 19.4 °F 80% 30.32 in 10.0 mi NNW 15.0 mph - N/A   Mostly Cloudy
2:56 AM 23.0 °F 10.6 °F 18.1 °F 82% 30.38 in 10.0 mi NNW 13.8 mph - N/A   Mostly Cloudy
3:17 AM 23.0 °F 8.0 °F 15.8 °F 74% 30.34 in 10.0 mi NNW 20.7 mph - N/A   Scattered Clouds
4:56 AM 18.1 °F - 10.0 °F 71% 30.44 in 10.0 mi North - - N/A   Partly Cloudy
5:56 AM 17.1 °F - 9.1 °F 71% 30.47 in 10.0 mi North - - N/A   Clear
6:56 AM 16.2 °F 3.9 °F 10.0 °F 77% 30.50 in 10.0 mi NW 10.4 mph - N/A   Clear
7:56 AM 18.1 °F 5.0 °F 11.1 °F 74% 30.53 in 10.0 mi NW 12.7 mph - N/A   Clear
8:56 AM 20.1 °F 10.3 °F 10.0 °F 65% 30.56 in 10.0 mi NNW 8.1 mph - N/A   Clear
9:56 AM 22.1 °F 12.8 °F 10.0 °F 60% 30.58 in 10.0 mi North 8.1 mph - N/A   Clear
10:56 AM 23.0 °F 14.7 °F 10.0 °F 58% 30.56 in 10.0 mi NNE 6.9 mph - N/A   Clear
11:56 AM 25.2 °F 17.3 °F 11.1 °F 55% 30.55 in 10.0 mi NNW 6.9 mph - N/A   Clear
12:56 PM 26.1 °F 21.9 °F 12.0 °F 55% 30.53 in 10.0 mi Variable 3.5 mph - N/A   Clear
1:56 PM 28.0 °F 21.7 °F 11.1 °F 49% 30.51 in 10.0 mi WNW 5.8 mph - N/A   Clear
2:56 PM 29.1 °F - 12.0 °F 49% 30.49 in 10.0 mi Calm Calm - N/A   Clear
3:56 PM 31.1 °F - 13.1 °F 47% 30.49 in 10.0 mi Calm Calm - N/A   Clear
5:56 PM 27.1 °F - 15.1 °F 60% 30.49 in 10.0 mi Calm Calm - N/A   Clear
6:56 PM 26.1 °F - 17.1 °F 69% 30.49 in 10.0 mi Calm Calm - N/A   Clear
7:56 PM 25.2 °F - 18.1 °F 75% 30.48 in 10.0 mi Calm Calm - N/A   Clear
8:56 PM 23.0 °F - 18.1 °F 82% 30.45 in 10.0 mi Calm Calm - N/A   Clear
9:56 PM 25.2 °F - 18.1 °F 75% 30.44 in 10.0 mi Calm Calm - N/A   Clear
10:56 PM 25.2 °F - 18.1 °F 75% 30.43 in 10.0 mi Calm Calm - N/A   Clear
11:56 PM 24.1 °F - 18.1 °F 78% 30.41 in 10.0 mi Calm Calm - N/A   Clear